| time (UTC) | temp F | wind direction | speed MPH | gust MPH | rain 1hr in | rain 24hr in | rain mn in | humidity % | barometer mb |
| 20260509160050 | 44 | 136 | 2.0 | 5.0 | 0.00 | 0.01 | 0.01 | 90 | 1010.5 |
| 20260509154550 | 44 | 103 | 0.0 | 7.0 | 0.00 | 0.01 | 0.01 | 90 | 1010.7 |
| 20260509153054 | 44 | 92 | 0.0 | 6.0 | 0.00 | 0.01 | 0.01 | 90 | 1010.9 |
| 20260509151550 | 44 | 139 | 3.0 | 6.0 | 0.00 | 0.01 | 0.01 | 90 | 1010.9 |
| 20260509150050 | 45 | 140 | 3.0 | 7.0 | 0.00 | 0.01 | 0.01 | 89 | 1010.8 |
| 20260509144547 | 45 | 118 | 2.0 | 6.0 | 0.01 | 0.01 | 0.01 | 89 | 1010.8 |
| 20260509143056 | 45 | 141 | 1.0 | 6.0 | 0.01 | 0.01 | 0.01 | 88 | 1010.9 |
| 20260509141548 | 45 | 132 | 4.0 | 10.0 | 0.01 | 0.01 | 0.01 | 87 | 1010.7 |
| 20260509140057 | 45 | 134 | 5.0 | 9.0 | 0.01 | 0.01 | 0.01 | 89 | 1010.6 |
| 20260509134544 | 45 | 127 | 4.0 | 5.0 | 0.00 | 0.00 | 0.00 | 88 | 1010.6 |
| 20260509133042 | 45 | 104 | 0.0 | 0.0 | 0.00 | 0.00 | 0.00 | 87 | 1010.4 |
| 20260509131543 | 44 | 104 | 1.0 | 4.0 | 0.00 | 0.00 | 0.00 | 87 | 1010.4 |
| 20260509130040 | 44 | 105 | 2.0 | 5.0 | 0.00 | 0.00 | 0.00 | 87 | 1010.6 |
| 20260509124536 | 43 | 135 | 0.0 | 2.0 | 0.00 | 0.00 | 0.00 | 85 | 1010.7 |
| 20260509123041 | 43 | 134 | 1.0 | 3.0 | 0.00 | 0.00 | 0.00 | 80 | 1010.8 |
| 20260509121535 | 43 | 135 | 0.0 | 4.0 | 0.00 | 0.00 | 0.00 | 75 | 1010.7 |
| 20260509120037 | 43 | 128 | 0.0 | 0.0 | 0.00 | 0.00 | 0.00 | 77 | 1010.7 |
| 20260509114534 | 42 | 126 | 0.0 | 0.0 | 0.00 | 0.00 | 0.00 | 79 | 1010.7 |
| 20260509113034 | 41 | 126 | 0.0 | 0.0 | 0.00 | 0.00 | 0.00 | 81 | 1010.6 |
| 20260509111529 | 40 | 126 | 0.0 | 0.0 | 0.00 | 0.00 | 0.00 | 79 | 1010.7 |
| 20260509110027 | 39 | 126 | 0.0 | 0.0 | 0.00 | 0.00 | 0.00 | 78 | 1010.8 |
| 20260509104525 | 39 | 126 | 0.0 | 0.0 | 0.00 | 0.00 | 0.00 | 80 | 1010.9 |
| 20260509103022 | 38 | 126 | 0.0 | 0.0 | 0.00 | 0.00 | 0.00 | 79 | 1010.7 |
| 20260509101522 | 38 | 126 | 0.0 | 0.0 | 0.00 | 0.00 | 0.00 | 80 | 1010.7 |
| 20260509100019 | 38 | 126 | 0.0 | 5.0 | 0.00 | 0.00 | 0.00 | 80 | 1010.5 |
| 20260509094519 | 39 | 118 | 0.0 | 2.0 | 0.00 | 0.00 | 0.00 | 79 | 1010.2 |
| 20260509093015 | 39 | 118 | 4.0 | 6.0 | 0.00 | 0.00 | 0.00 | 78 | 1010.2 |
| 20260509091513 | 39 | 115 | 2.0 | 6.0 | 0.00 | 0.00 | 0.00 | 78 | 1010.0 |
| 20260509090012 | 39 | 112 | 3.0 | 8.0 | 0.00 | 0.00 | 0.00 | 78 | 1010.0 |
| 20260509084509 | 39 | 115 | 2.0 | 5.0 | 0.00 | 0.00 | 0.00 | 77 | 1009.7 |
| 20260509083011 | 40 | 227 | 0.0 | 0.0 | 0.00 | 0.00 | 0.00 | 75 | 1009.6 |
| 20260509081507 | 40 | 227 | 0.0 | 0.0 | 0.00 | 0.00 | 0.00 | 73 | 1009.6 |
| 20260509080007 | 40 | 227 | 0.0 | 0.0 | 0.00 | 0.00 | 0.00 | 74 | 1009.6 |
| 20260509074504 | 40 | 227 | 0.0 | 0.0 | 0.00 | 0.00 | 0.00 | 74 | 1009.7 |
| 20260509073002 | 40 | 228 | 0.0 | 0.0 | 0.00 | 0.00 | 0.00 | 73 | 1009.5 |
| 20260509071612 | 40 | 228 | 0.0 | 4.0 | 0.00 | 0.00 | 0.00 | 73 | 1009.5 |
| 20260509070059 | 41 | 228 | 2.0 | 5.0 | 0.00 | 0.00 | 0.00 | 72 | 1009.6 |
| 20260509064601 | 41 | 227 | 1.0 | 4.0 | 0.00 | 0.00 | 0.00 | 71 | 1009.7 |
| 20260509063055 | 41 | 248 | 2.0 | 5.0 | 0.00 | 0.00 | 0.00 | 71 | 1009.8 |
| 20260509061601 | 42 | 210 | 3.0 | 6.0 | 0.00 | 0.00 | 0.00 | 70 | 1009.7 |
| 20260509060054 | 42 | 215 | 3.0 | 6.0 | 0.00 | 0.00 | 0.00 | 70 | 1009.8 |
| 20260509054606 | 42 | 225 | 2.0 | 6.0 | 0.00 | 0.00 | 0.00 | 69 | 1009.8 |
| 20260509053052 | 42 | 219 | 1.0 | 7.0 | 0.00 | 0.00 | 0.00 | 69 | 1009.8 |
| 20260509051547 | 42 | 192 | 4.0 | 8.0 | 0.00 | 0.00 | 0.00 | 69 | 1009.7 |
| 20260509050052 | 42 | 210 | 3.0 | 6.0 | 0.00 | 0.00 | 0.00 | 69 | 1009.6 |
| 20260509044544 | 43 | 221 | 2.0 | 6.0 | 0.00 | 0.00 | 0.00 | 69 | 1009.6 |
| 20260509043053 | 42 | 240 | 3.0 | 7.0 | 0.00 | 0.00 | 0.00 | 69 | 1009.6 |
| 20260509041542 | 43 | 220 | 4.0 | 7.0 | 0.00 | 0.00 | 0.00 | 69 | 1009.5 |
| 20260509040039 | 43 | 239 | 4.0 | 7.0 | 0.00 | 0.00 | 0.00 | 69 | 1009.3 |
| 20260509034539 | 43 | 248 | 4.0 | 8.0 | 0.00 | 0.00 | 0.00 | 68 | 1009.3 |
| 20260509033037 | 44 | 233 | 4.0 | 7.0 | 0.00 | 0.00 | 0.00 | 68 | 1009.1 |
| 20260509031546 | 44 | 206 | 4.0 | 8.0 | 0.00 | 0.00 | 0.00 | 67 | 1009.0 |
| 20260509030039 | 44 | 221 | 2.0 | 6.0 | 0.00 | 0.00 | 0.00 | 66 | 1008.9 |
| 20260509024539 | 44 | 245 | 4.0 | 7.0 | 0.00 | 0.00 | 0.00 | 65 | 1008.9 |
| 20260509023037 | 45 | 227 | 4.0 | 7.0 | 0.00 | 0.00 | 0.00 | 64 | 1009.0 |
| 20260509021535 | 45 | 254 | 5.0 | 9.0 | 0.00 | 0.00 | 0.00 | 63 | 1008.7 |
| 20260509020034 | 46 | 244 | 5.0 | 8.0 | 0.00 | 0.00 | 0.00 | 62 | 1008.6 |
| 20260509014533 | 46 | 227 | 3.0 | 7.0 | 0.00 | 0.00 | 0.00 | 60 | 1008.4 |
| 20260509013040 | 46 | 250 | 4.0 | 8.0 | 0.00 | 0.00 | 0.00 | 59 | 1008.0 |
| 20260509011532 | 47 | 223 | 5.0 | 10.0 | 0.00 | 0.00 | 0.00 | 58 | 1008.0 |
| 20260509010031 | 47 | 229 | 5.0 | 9.0 | 0.00 | 0.00 | 0.00 | 57 | 1007.5 |
| 20260509004538 | 48 | 247 | 5.0 | 10.0 | 0.00 | 0.00 | 0.00 | 55 | 1007.5 |
| 20260509003030 | 48 | 270 | 5.0 | 13.0 | 0.00 | 0.00 | 0.00 | 54 | 1007.1 |
| 20260509001529 | 49 | 221 | 6.0 | 13.0 | 0.00 | 0.00 | 0.00 | 52 | 1006.9 |
| 20260509000028 | 49 | 275 | 6.0 | 12.0 | 0.00 | 0.00 | 0.00 | 51 | 1006.9 |
| 20260508234527 | 50 | 257 | 5.0 | 13.0 | 0.00 | 0.00 | 0.00 | 49 | 1006.4 |
| 20260508233027 | 51 | 281 | 6.0 | 14.0 | 0.00 | 0.00 | 0.00 | 48 | 1006.3 |
| 20260508231526 | 51 | 242 | 7.0 | 14.0 | 0.00 | 0.00 | 0.00 | 47 | 1006.1 |
| 20260508230026 | 52 | 284 | 7.0 | 16.0 | 0.00 | 0.00 | 0.00 | 45 | 1005.9 |
| 20260508224525 | 52 | 256 | 5.0 | 9.0 | 0.00 | 0.00 | 0.00 | 44 | 1005.8 |
| 20260508223033 | 53 | 271 | 4.0 | 9.0 | 0.00 | 0.00 | 0.00 | 42 | 1005.8 |
| 20260508221530 | 53 | 290 | 3.0 | 10.0 | 0.00 | 0.00 | 0.00 | 43 | 1005.7 |
| 20260508220034 | 54 | 293 | 5.0 | 11.0 | 0.00 | 0.00 | 0.00 | 40 | 1005.6 |
| 20260508214523 | 54 | 285 | 8.0 | 20.0 | 0.00 | 0.00 | 0.00 | 40 | 1005.6 |
| 20260508213029 | 54 | 234 | 7.0 | 12.0 | 0.00 | 0.00 | 0.00 | 39 | 1005.3 |
| 20260508211523 | 54 | 252 | 6.0 | 18.0 | 0.00 | 0.00 | 0.00 | 38 | 1005.2 |
| 20260508210022 | 56 | 256 | 9.0 | 20.0 | 0.00 | 0.00 | 0.00 | 36 | 1005.0 |
| 20260508204522 | 57 | 232 | 10.0 | 18.0 | 0.00 | 0.00 | 0.00 | 36 | 1004.8 |
| 20260508203019 | 55 | 295 | 7.0 | 15.0 | 0.00 | 0.00 | 0.00 | 40 | 1004.8 |
| 20260508201520 | 55 | 282 | 7.0 | 18.0 | 0.00 | 0.00 | 0.00 | 37 | 1004.8 |
| 20260508200018 | 55 | 227 | 6.0 | 12.0 | 0.00 | 0.00 | 0.00 | 37 | 1004.8 |
| 20260508194518 | 55 | 232 | 9.0 | 15.0 | 0.00 | 0.00 | 0.00 | 34 | 1004.7 |
| 20260508193018 | 55 | 276 | 5.0 | 18.0 | 0.00 | 0.00 | 0.00 | 36 | 1004.7 |
| 20260508191525 | 55 | 254 | 7.0 | 18.0 | 0.00 | 0.00 | 0.00 | 35 | 1004.8 |
| 20260508190017 | 54 | 288 | 7.0 | 16.0 | 0.00 | 0.00 | 0.00 | 34 | 1004.8 |
| 20260508184518 | 55 | 241 | 8.0 | 18.0 | 0.00 | 0.00 | 0.00 | 34 | 1004.9 |
| 20260508183015 | 54 | 265 | 10.0 | 19.0 | 0.00 | 0.00 | 0.00 | 35 | 1005.1 |
| 20260508181538 | 56 | 286 | 8.0 | 18.0 | 0.00 | 0.00 | 0.00 | 33 | 1004.8 |
| 20260508180015 | 54 | 277 | 9.0 | 23.0 | 0.00 | 0.00 | 0.00 | 35 | 1005.0 |
| 20260508174517 | 54 | 286 | 9.0 | 23.0 | 0.00 | 0.00 | 0.00 | 34 | 1004.8 |
| 20260508173012 | 55 | 319 | 8.0 | 20.0 | 0.00 | 0.00 | 0.00 | 35 | 1004.8 |
| 20260508171512 | 55 | 269 | 8.0 | 21.0 | 0.00 | 0.00 | 0.00 | 35 | 1004.8 |
| 20260508170014 | 55 | 284 | 7.0 | 19.0 | 0.00 | 0.00 | 0.00 | 37 | 1004.7 |
| 20260508164517 | 54 | 248 | 8.0 | 16.0 | 0.00 | 0.00 | 0.00 | 34 | 1004.8 |
| 20260508163011 | 55 | 237 | 10.0 | 20.0 | 0.00 | 0.00 | 0.00 | 34 | 1004.8 |
| 20260508161509 | 55 | 231 | 5.0 | 13.0 | 0.00 | 0.00 | 0.00 | 37 | 1004.7 |